星链-3394 (STARLINK-3394 )

导读

STARLINK-3394是美国SpaceX公司星链星座中的一颗低轨通信卫星,于2022年1月19日发射入轨,隶属于星链互联网卫星组网。 星链星座通过数千颗低轨卫星为全球提供高速低延迟互联网服务,弥补偏远地区地面网络覆盖盲区。STARLINK-3394作为星链组网的组成部分,参与提供宽带接入、应急通信等服务,助力星链实现全球连续覆盖,支持多场景网络应用。

基本信息
目录编号:
51118
目录名称:
STARLINK-3394
国际标识:
2022-005Q
轨道中心:
EARTH
卫星名称:
星链-3394
卫星全名:
星链-3394 (STARLINK-3394 )
卫星状态:
在轨 (已飞行1697 天)
发射日期:
2022-01-19 UTC
国别 :
美国 (US)
星等 :
--
该卫星已列入 空间交会检测服务 Space Conjunction Data Service (SCDS) ,当前飞行风险评估等级: 无高风险
轨道信息
数据来源 国际轨道数据
星历时间: 2026-09-11T19:52:15+0800
17小时前
查看轨道信息
半长轴: 6840.869km
偏心率: 0.000141
轨道倾角: 53.161°
近地点辐角 85.963°
升交点赤经 167.464°
平近点角 274.154°
近地点: 461.767km
远地点: 463.697km
周期: 93.848分钟
每日圈数: 15.343906
详细信息
固有亮度:
5
最大亮度:
2.5
卫星平台:
Starlink v1.5
覆盖范围:
全球
运营商:
太空探索技术公司
运营商所在国:
美国
制造商(研发单位):
太空探索技术公司
制造商所在国:
美国
使用方式:
暂无
卫星简介
星链(Starlink)计划是由太空探索技术公司(SpaceX)提出的一个巨型低轨卫星互联网星座项目,计划在2019年至2024年间在太空搭建由约1.2万颗卫星组成的“星链”网络,其中1584颗将部署在地球上空550千米处的近地轨道,并从2020年开始工作。该卫星仍在工作。
2D轨道图
3D轨道图
轨道高度分析图
轨道倾角分析图
轨道综合分析图
查看轨道综合分析图
交会数据列表
事件ID 空间交会对象 最接近时刻(TCA) 交会距离 交会风险概率(CRP) 交会风险指数(CRI) 操作
CDM_260914-053505-111806-521921
2026-09-14T
05:35:40+0000
0.773 km
远距离
5.52318E-5 中风险 0.7
CDM_260913-022305-111805-703125
2026-09-13T
02:23:26+0000
2.109 km
极远距离
2.456148E-6 低风险 0.43
CDM_260914-070905-111806-521921
2026-09-14T
07:09:27+0000
2.258 km
极远距离
1.89652E-6 低风险 0.41
CDM_260914-040105-111806-521921
2026-09-14T
04:01:52+0000
2.734 km
极远距离
1.346852E-6 低风险 0.38
CDM_260914-093805-111805-328221
2026-09-14T
09:38:47+0000
2.731 km
极远距离
1.216746E-6 低风险 0.37
CDM_260912-051505-111805-314021
2026-09-12T
05:15:33+0000
2.980 km
极远距离
1.113658E-6 低风险 0.36
与全量物体交会距离演化趋势
与全量物体交会风险概率演化趋势